[[{"header":{"parameterUnit":"m.s-1","parameterCategory":1,"la1":30.2991,"la2":30.254,"lo1":-89.0895,"lo2":-89.0444,"dy":0.0017,"dx":0.0017,"nx":28,"ny":28,"refTime":"2025-04-15T03:00:00:Z","depth":0,"parameterNumber":2,"parameterNumberName":"U-component_of_WINDS"},"data":[0,0,0,0,0,0,0,0,0,0,0,0,0,0,0,0,0,0,0,0,0,0,0,0,0,0,0,0,0,0,0,0,0,0,0,0,0,0,0,0,0,0,0,0,0,0,0,0,0,0,0,0,0,0,0,0,0,0,0.7136,0.7137,0,0.7242,0.7243,0.7244,0.7293,0.7293,0.7293,0.7293,0.7406,0.7409,0.7412,0,0,0,0,0,0,0,0,0,0,0,0,0,0.6982,0.6984,0.7136,0.7137,0.7138,0.7241,0.7243,0.7244,0.7293,0.7293,0.7293,0.7293,0.7405,0.7408,0.7412,0,0,0,0,0,0,0,0,0,0,0,0,0,0.7064,0.6985,0.7135,0.7175,0.718,0.7241,0.7243,0.7245,0.7293,0.7293,0.7293,0.7293,0.7404,0.7408,0.7413,0.7444,0,0,0.7427,0.7429,0,0,0,0,0,0,0,0,0.706,0.707,0.7168,0.7172,0.7178,0.7254,0.723,0.7312,0.7293,0.725,0.7293,0.7293,0.7356,0.7364,0.7385,0.745,0.7454,0.7427,0.743,0.7432,0.7433,0,0,0,0,0,0,0,0.7054,0.7066,0.7178,0.7169,0.7175,0.7189,0.7201,0.7246,0.7303,0.7254,0.7258,0.7269,0.7358,0.738,0.7388,0.7456,0.7427,0.7431,0.7434,0.7436,0.7556,0.7556,0,0,0,0,0,0,0.7041,0.7061,0.7174,0.7181,0.7117,0.7192,0.7205,0.723,0.7302,0.7313,0.7269,0.7271,0.7372,0.7382,0.7392,0.7436,0.7432,0.7436,0.7439,0.7555,0.7556,0.7556,0,0,0,0,0,0,0.7037,0.7051,0.717,0.7122,0.7138,0.7195,0.7222,0.7232,0.7253,0.7314,0.7325,0.7281,0.7372,0.7385,0.7431,0.744,0.7439,0.7443,0.7555,0.7555,0.7556,0.7522,0,0,0,0,0,0,0.7033,0.7049,0.706,0.7122,0.714,0.7206,0.7223,0.7234,0.7261,0.7264,0.7327,0.7338,0.7373,0.7424,0.7436,0.7446,0.7446,0.7554,0.7555,0.7556,0.7522,0.7521,0.752,0,0,0,0,0,0.7027,0.7047,0.706,0.7074,0.7155,0.7206,0.7217,0.7256,0.7261,0.7274,0.7313,0.7336,0.7437,0.7428,0.7442,0.7454,0.7554,0.7555,0.7556,0.7523,0.7521,0.752,0,0,0,0,0,0,0.6986,0.7055,0.7071,0.7111,0.7152,0.7214,0.7231,0.7253,0.7295,0.7297,0.7345,0.7359,0.7401,0.7432,0.7421,0.749,0.7498,0.7501,0.7468,0.7467,0.7466,0.7458,0.745,0,0,0,0,0,0.6981,0.7014,0.7074,0.7104,0.7124,0.7174,0.7197,0.7224,0.7269,0.7288,0.733,0.7375,0.7417,0.7444,0.7486,0.7527,0.7543,0.7542,0.7541,0.754,0.7543,0.757,0.7571,0.7559,0.7559,0.7559,0,0,0.6972,0.7014,0.7032,0.7097,0.7132,0.7168,0.7188,0.7225,0.7253,0.7294,0.734,0.7373,0.7426,0.747,0.7492,0.7497,0.755,0.7541,0.754,0.7544,0.7571,0.7572,0.7573,0.756,0.7559,0.7559,0,0,0.6974,0.7008,0.7037,0.7072,0.7125,0.7158,0.7165,0.7225,0.7248,0.7295,0.7327,0.7362,0.7433,0.747,0.7498,0.7516,0.754,0.7529,0.7523,0.7549,0.755,0.7551,0.756,0.7562,0.7531,0.7531,0.7531,0,0.6956,0.701,0.705,0.7086,0.7114,0.7151,0.7183,0.7216,0.728,0.7299,0.7304,0.7395,0.7434,0.7489,0.7493,0.7514,0.7526,0.7522,0.7546,0.7548,0.7549,0.7558,0.7561,0.753,0.753,0.753,0.753,0,0.6987,0.7024,0.7042,0.7102,0.7133,0.7166,0.7213,0.7239,0.7264,0.7298,0.7346,0.7394,0.7447,0.7462,0.7486,0.7521,0.7523,0.7536,0.7545,0.7548,0.7558,0.7561,0.7528,0.7528,0.7529,0.7529,0,0,0.6965,0.7048,0.7054,0.7083,0.7145,0.7175,0.7211,0.7262,0.7285,0.7329,0.7362,0.7422,0.7435,0.7467,0.7496,0.7519,0.7533,0.753,0.7532,0.753,0.7577,0.7568,0.7571,0.7548,0.7549,0.755,0.7573,0,0.6977,0.7042,0.708,0.713,0.7167,0.7204,0.7236,0.7279,0.7312,0.7349,0.7386,0.7429,0.7442,0.7462,0.7485,0.7526,0.7543,0.7525,0.7582,0.7584,0.7569,0.7575,0.7565,0.7585,0.7577,0.7578,0.7578,0,0.6999,0.7041,0.7095,0.7155,0.7171,0.7199,0.725,0.7285,0.7335,0.7358,0.7394,0.7424,0.7466,0.7471,0.7531,0.7518,0.7544,0.7568,0.757,0.7578,0.7582,0.7585,0.7592,0.7595,0.7584,0.7583,0.7583,0,0.698,0.7051,0.7092,0.7116,0.7186,0.7205,0.7235,0.7285,0.7314,0.736,0.738,0.7429,0.7457,0.7496,0.754,0.7539,0.7597,0.7604,0.7619,0.7618,0.763,0.7629,0.7643,0.7644,0.7644,0.7644,0.7644,0,0.699,0.7022,0.7085,0.7111,0.7149,0.7193,0.723,0.7264,0.7308,0.7343,0.7378,0.7411,0.7465,0.7505,0.7539,0.7586,0.7597,0.7619,0.7628,0.7616,0.7614,0.7635,0.7635,0.7645,0.7645,0.7644,0.7644,0,0.6975,0.7018,0.7067,0.713,0.7146,0.7172,0.7226,0.7254,0.7289,0.7333,0.7346,0.7402,0.7451,0.7498,0.7563,0.7587,0.7634,0.7644,0.7616,0.7621,0.7634,0.7633,0.7663,0.767,0.7664,0.7664,0.7664,0,0.6979,0.7005,0.707,0.7096,0.7125,0.7165,0.7195,0.7241,0.7271,0.7332,0.7353,0.7404,0.7447,0.7524,0.7572,0.7623,0.7637,0.7644,0.7645,0.7633,0.7639,0.7638,0.7642,0.7643,0.7643,0.7643,0.7643,0,0.6983,0.7003,0.7044,0.7093,0.7128,0.7169,0.7211,0.7231,0.7285,0.7318,0.7367,0.7401,0.7468,0.752,0.7577,0.7611,0.7637,0.7642,0.7648,0.7638,0.7621,0.7632,0.7615,0.7641,0.7641,0.7641,0.7642,0.7642,0.6979,0.7004,0.7055,0.71,0.7137,0.7176,0.7206,0.7245,0.7287,0.7344,0.7369,0.7421,0.7473,0.7552,0.7585,0.7628,0.7634,0.7642,0.7645,0.7647,0.7645,0.7613,0.7638,0.7638,0.7638,0.7638,0.7638,0,0.6986,0.702,0.7061,0.712,0.7156,0.7176,0.7225,0.7254,0.7298,0.7344,0.7387,0.7445,0.7496,0.7548,0.7602,0.7626,0.764,0.7639,0.7638,0.7646,0.7636,0.7626,0.7627,0.7627,0.7627,0.7627,0.7627,0.7627,0.6993,0.7038,0.7065,0.7129,0.7164,0.7214,0.724,0.7278,0.7315,0.7378,0.742,0.7453,0.7503,0.7561,0.7609,0.7624,0.7643,0.7639,0.7657,0.7646,0.7647,0.7647,0.7638,0.7642,0.7642,0.7664,0.7664,0.7665]},{"header":{"parameterUnit":"m.s-1","parameterCategory":1,"la1":30.2991,"la2":30.254,"lo1":-89.0895,"lo2":-89.0444,"dy":0.0017,"dx":0.0017,"nx":28,"ny":28,"refTime":"2025-04-15T03:00:00:Z","depth":0,"parameterNumber":3,"parameterNumberName":"V-component_of_WINDS"},"data":[0,0,0,0,0,0,0,0,0,0,0,0,0,0,0,0,0,0,0,0,0,0,0,0,0,0,0,0,0,0,0,0,0,0,0,0,0,0,0,0,0,0,0,0,0,0,0,0,0,0,0,0,0,0,0,0,0,0,5.0326,5.0327,0,5.0363,5.0363,5.0364,5.0359,5.0358,5.0357,5.0357,5.0389,5.039,5.0392,0,0,0,0,0,0,0,0,0,0,0,0,0,5.0248,5.0249,5.0326,5.0327,5.0327,5.0363,5.0363,5.0364,5.0359,5.0358,5.0357,5.0357,5.0389,5.039,5.0392,0,0,0,0,0,0,0,0,0,0,0,0,0,5.0283,5.025,5.0326,5.0329,5.033,5.0363,5.0363,5.0364,5.0359,5.0358,5.0357,5.0356,5.0388,5.039,5.0392,5.0423,0,0,5.0399,5.0399,0,0,0,0,0,0,0,0,5.0281,5.0285,5.0328,5.0329,5.033,5.0355,5.0347,5.0383,5.0359,5.0348,5.0357,5.0356,5.0378,5.0381,5.039,5.0424,5.0426,5.0399,5.04,5.0401,5.0402,0,0,0,0,0,0,0,5.0278,5.0284,5.034,5.0329,5.033,5.0327,5.0331,5.0354,5.0367,5.0349,5.0348,5.0353,5.0378,5.0388,5.039,5.0426,5.0399,5.0401,5.0402,5.0403,5.0489,5.049,0,0,0,0,0,0,5.0276,5.0282,5.0339,5.0342,5.0303,5.0329,5.0334,5.0348,5.0367,5.0369,5.0354,5.0353,5.0384,5.0388,5.0391,5.043,5.0401,5.0403,5.0404,5.0488,5.0489,5.049,0,0,0,0,0,0,5.0274,5.0281,5.0338,5.0312,5.0319,5.0332,5.0347,5.0349,5.0358,5.0371,5.0373,5.0361,5.0384,5.0388,5.0416,5.0431,5.0404,5.0406,5.0487,5.0488,5.049,5.0506,0,0,0,0,0,0,5.0272,5.028,5.0293,5.0312,5.032,5.0363,5.0348,5.035,5.0363,5.0362,5.0378,5.038,5.0384,5.0413,5.0418,5.0433,5.0407,5.0485,5.0487,5.0489,5.0504,5.0508,5.0511,0,0,0,0,0,5.0269,5.0295,5.0294,5.0301,5.0337,5.0364,5.0368,5.0373,5.0364,5.0376,5.0385,5.038,5.0428,5.0415,5.0421,5.0437,5.0484,5.0487,5.0489,5.0502,5.0507,5.0511,0,0,0,0,0,0,5.0274,5.0297,5.0296,5.0329,5.0345,5.0363,5.0378,5.0377,5.0394,5.0392,5.0396,5.04,5.0428,5.0435,5.042,5.0469,5.0455,5.0458,5.0463,5.0468,5.0471,5.0469,5.0409,0,0,0,0,0,5.028,5.0302,5.0319,5.0346,5.0355,5.0365,5.0377,5.038,5.0395,5.0401,5.0412,5.0425,5.0444,5.0456,5.0473,5.0505,5.0509,5.0519,5.0522,5.0525,5.0528,5.0546,5.0551,5.0498,5.0498,5.0498,0,0,5.029,5.0305,5.0318,5.0348,5.0361,5.0382,5.0371,5.0393,5.0409,5.0404,5.0432,5.0439,5.0455,5.0485,5.0498,5.0492,5.0544,5.0528,5.053,5.0532,5.0549,5.0554,5.0559,5.0499,5.0499,5.0499,0,0,5.0321,5.0334,5.036,5.0373,5.0393,5.04,5.0406,5.0425,5.0431,5.0459,5.0456,5.0473,5.0505,5.0517,5.0527,5.0564,5.056,5.0569,5.0587,5.0605,5.0609,5.0613,5.0627,5.0632,5.0572,5.0572,5.0572,0,5.0331,5.0365,5.0372,5.0396,5.0409,5.0408,5.0433,5.0445,5.0469,5.0477,5.047,5.0511,5.0521,5.0554,5.0564,5.0571,5.0578,5.0568,5.0608,5.0612,5.0616,5.0629,5.0635,5.0573,5.0573,5.0573,5.0573,0,5.0377,5.0401,5.0418,5.0444,5.0459,5.0483,5.0493,5.0507,5.0508,5.0516,5.0544,5.0557,5.0578,5.0586,5.0586,5.0619,5.0615,5.0608,5.0594,5.0622,5.0635,5.064,5.0575,5.0574,5.0574,5.0574,0,0,5.0411,5.0443,5.0449,5.0462,5.0484,5.0502,5.0526,5.0548,5.0561,5.0577,5.0597,5.0625,5.0619,5.063,5.0632,5.0648,5.0678,5.0639,5.0639,5.0647,5.0716,5.0722,5.0727,5.0675,5.0676,5.0677,5.0715,0,5.0445,5.0491,5.0498,5.0537,5.0559,5.0559,5.058,5.0595,5.0603,5.0622,5.0629,5.065,5.064,5.0647,5.0662,5.0671,5.0692,5.0668,5.0693,5.0694,5.0691,5.0734,5.074,5.0775,5.072,5.072,5.0721,0,5.0491,5.0512,5.0554,5.0575,5.0585,5.0604,5.0626,5.0644,5.0661,5.0665,5.0679,5.068,5.0704,5.0689,5.0722,5.0706,5.0716,5.0722,5.0723,5.0726,5.071,5.0739,5.0786,5.0792,5.0729,5.0728,5.0728,0,5.0513,5.0551,5.0582,5.0593,5.0618,5.0631,5.0642,5.0659,5.0673,5.0691,5.07,5.072,5.0731,5.0746,5.0751,5.074,5.0784,5.0769,5.0788,5.0788,5.0798,5.0798,5.0849,5.0804,5.0803,5.0803,5.0803,0,5.0551,5.0577,5.0593,5.0612,5.0641,5.0649,5.0676,5.0686,5.0702,5.0721,5.0721,5.0739,5.0745,5.0764,5.0768,5.0796,5.08,5.0804,5.0805,5.0805,5.0805,5.0812,5.081,5.0805,5.0804,5.0804,5.0804,0,5.0581,5.0593,5.0627,5.0649,5.0655,5.0676,5.0694,5.0711,5.072,5.0745,5.0751,5.0763,5.0786,5.0793,5.0819,5.0822,5.0854,5.0852,5.0849,5.0849,5.0868,5.0867,5.0927,5.0936,5.0884,5.0884,5.0885,0,5.0605,5.0625,5.0651,5.0666,5.0678,5.0701,5.0715,5.0723,5.0738,5.0761,5.0776,5.0799,5.0818,5.0853,5.0863,5.0883,5.0883,5.0902,5.0886,5.0885,5.0884,5.0884,5.0886,5.0906,5.0906,5.0907,5.0907,0,5.0646,5.0651,5.0674,5.0699,5.0718,5.0737,5.0755,5.0767,5.0777,5.0794,5.0819,5.0833,5.0862,5.0884,5.0905,5.0914,5.0913,5.0912,5.0918,5.0918,5.0916,5.0919,5.0859,5.0911,5.091,5.091,5.091,5.091,5.0674,5.0693,5.0715,5.074,5.0756,5.0774,5.0792,5.0804,5.0825,5.0851,5.0853,5.088,5.0897,5.0925,5.0936,5.0956,5.095,5.0958,5.096,5.0962,5.0964,5.0913,5.0959,5.0959,5.0959,5.0959,5.0959,0,5.0717,5.0731,5.0755,5.0783,5.0802,5.0801,5.0822,5.0838,5.0862,5.0879,5.0899,5.0927,5.0949,5.0962,5.0984,5.0997,5.0997,5.1003,5.1002,5.1005,5.0967,5.0961,5.1003,5.1003,5.1003,5.1003,5.1003,5.1003,5.0741,5.0774,5.0782,5.0822,5.0836,5.0864,5.0876,5.0892,5.0907,5.0939,5.0959,5.0968,5.0983,5.1006,5.1026,5.1029,5.1038,5.1044,5.1047,5.1012,5.1007,5.1003,5.0997,5.1046,5.1046,5.1083,5.1083,5.1083]}]]